Flag for U.S.A. Weather past 2 weeks in Dallas, Texas, U.S.A.

Now
69 °F

Partly cloudy.


Feels Like: 69 °F
Forecast: 66 / 81 °F
Wind: 13 mph from South

Location: Dallas Love Field

Current Time: Mar 31, 2015 at 1:25:59 AM

Latest Report: Mar 31, 2015 at 12:53 AM


Visibility: 10 mi

Pressure: 29.98 "Hg

Humidity: 79%

Dew point: 62 °F

Location of DallasLocation

Historic Weather in Dallas — Graph

°F

Dallas temperature yesterday

Maximum temperature yesterday: 76 °F (at 5:53 PM)
Minimum temperature yesterday: 62 °F (at 5:53 AM)
Average temperature yesterday: 70 °F

Past Weeks' High & Low Weather Summary

 TemperatureHumidityPressure
High85 °F (Mar 29, 3:53 PM)97% (Mar 19, 7:53 AM)30.25 "Hg (Mar 19, 7:53 AM)
Low48 °F (Mar 27, 5:53 AM)26% (Mar 26, 6:53 PM)29.74 "Hg (Mar 25, 11:53 PM)
Average65 °F68%30.03 "Hg
* Reported Mar 15 11:53 PM — Mar 30 11:53 PM, Dallas, Weather by CustomWeather, © 2015

Note: Actual official high and low records may vary slightly from our data, if they occured in-between our weather recording intervals... More about our weather records

Advertising

Dallas weather history for previous 24 hours

 ConditionsComfort  
Time TempWeatherWind HumidityBarometerVisibility
11:53 PM
Mon, Mar 30
69 °FPassing clouds.12 mph81%30.00 "Hg10 mi
10:53 PM69 °FPartly cloudy.12 mph81%30.01 "Hg10 mi
9:53 PM72 °FPartly cloudy.15 mph73%30.03 "Hg10 mi
8:53 PM73 °FMostly cloudy.12 mph69%30.01 "Hg10 mi
7:53 PM74 °FMore clouds than sun.10 mph67%30.01 "Hg10 mi
6:53 PM75 °FMore clouds than sun.12 mph64%30.03 "Hg10 mi
5:53 PM76 °FMostly cloudy.9 mph62%30.03 "Hg10 mi
4:53 PM75 °FMostly cloudy.13 mph64%30.04 "Hg10 mi
3:53 PM75 °FMostly cloudy.13 mph64%30.07 "Hg10 mi
2:53 PM73 °FMostly cloudy.8 mph66%30.10 "Hg10 mi
1:53 PM74 °FMostly cloudy.8 mph67%30.13 "Hg10 mi
12:53 PM73 °FMostly cloudy.9 mph69%30.15 "Hg10 mi
11:53 AM71 °FMostly cloudy.9 mph73%30.15 "Hg10 mi
10:53 AM69 °FMostly cloudy.8 mph76%30.15 "Hg10 mi
9:53 AM67 °FOvercast.9 mph81%30.14 "Hg10 mi
8:53 AM67 °FPartly sunny.8 mph79%30.13 "Hg10 mi
7:53 AM65 °FPassing clouds.7 mph81%30.13 "Hg10 mi
6:53 AM64 °FPassing clouds.8 mph81%30.11 "Hg10 mi
5:53 AM62 °FPassing clouds.8 mph83%30.09 "Hg10 mi
4:53 AM64 °FPassing clouds.7 mph75%30.08 "Hg10 mi
3:53 AM65 °FPassing clouds.8 mph70%30.08 "Hg10 mi
2:53 AM67 °FClear.8 mph66%30.07 "Hg10 mi
1:53 AM68 °FClear.8 mph63%30.07 "Hg10 mi
Weather by CustomWeather, © 2015

See weather overviewHow to use our weather pages